Weather History for Lamezia Terme, Italy

Change the Weather History Date:

Tuesday, March 19, 2013

  Actual Average Record
Temperature  
Mean Temperature 50 °F -  
Max Temperature 59 °F 61 °F 68 °F (2012)
Min Temperature 42 °F 47 °F 37 °F (2009)
Degree Days  
Heating Degree Days 14    
Moisture  
Dew Point 49 °F    
Average Humidity 80    
Maximum Humidity 94    
Minimum Humidity 67    
Precipitation  
Precipitation 0.00 in - - ()
Sea Level Pressure  
Sea Level Pressure 29.82 in    
Wind  
Wind Speed 13 mph ()    
Max Wind Speed 21 mph    
Max Gust Speed -    
Visibility 5.9 miles    
Events      
Averages and records for this station are not official NWS values.
T = Trace of Precipitation, MM = Missing Value Source: Averaged Metar Reports

Daily Weather History Graph

Daily Weather History Graph

Search for Another Location

Airport:

Trip Planner

Search our weather history database for the weather conditions in past years. The results will help you decide how hot, cold, wet, or windy it might be!

Date:

Astronomy

Mar. 19, 2013 Rise Set
Actual Time 6:00 AM CET 6:05 PM CET
Civil Twilight 5:33 AM CET 6:32 PM CET
Nautical Twilight 5:02 AM CET 7:03 PM CET
Astronomical Twilight 4:31 AM CET 7:35 PM CET
Moon 10:38 AM CET (3/19) 12:36 AM CET (3/19)
Length of Visible Light 12h 59m
Length of Day
12h 05m
Waxing Crescent, 48% of the Moon is Illuminated
Mar 19
Waxing Crescent
Mar 19
First Quarter
Mar 27
Full
Apr 3
Last Quarter
Apr 10
New

Hourly Weather History & Observations

Time (CET) Temp. Windchill Dew Point Humidity Pressure Visibility Wind Dir Wind Speed Gust Speed Precip Events Conditions
1:01 AM 59.0 °F - 51.8 °F 77% 29.77 in 6.2 mi West 13.8 mph - N/A   Scattered Clouds
1:50 AM 59.0 °F - 51.8 °F 77% 29.77 in 6.2 mi West 18.4 mph - N/A   Mostly Cloudy
2:50 AM 57.2 °F - 53.6 °F 88% 29.77 in 5.0 mi West 17.3 mph - N/A   Mostly Cloudy
3:50 AM 57.2 °F - 53.6 °F 88% 29.77 in 5.0 mi West 20.7 mph - N/A   Mostly Cloudy
4:50 AM 55.4 °F - 53.6 °F 94% 29.74 in 5.0 mi West 20.7 mph - N/A   Scattered Clouds
5:50 AM 55.4 °F - 53.6 °F 94% 29.77 in 5.0 mi West 13.8 mph - N/A   Scattered Clouds
6:50 AM 55.4 °F - 51.8 °F 88% 29.80 in 6.2 mi West 15.0 mph - N/A   Scattered Clouds
7:50 AM 57.2 °F - 50.0 °F 77% 29.80 in 6.2 mi West 13.8 mph - N/A   Scattered Clouds
8:50 AM 59.0 °F - 48.2 °F 67% 29.83 in 6.2 mi West 15.0 mph - N/A   Partly Cloudy
9:50 AM 59.0 °F - 48.2 °F 67% 29.83 in 6.2 mi West 17.3 mph - N/A   Partly Cloudy
10:50 AM 59.0 °F - 48.2 °F 67% 29.83 in - WNW 16.1 mph - N/A   Clear
11:50 AM 59.0 °F - 50.0 °F 72% 29.86 in 6.2 mi West 16.1 mph - N/A   Partly Cloudy
12:50 PM 59.0 °F - 48.2 °F 67% 29.86 in 6.2 mi West 15.0 mph - N/A   Partly Cloudy
1:50 PM 59.0 °F - 48.2 °F 67% 29.86 in 6.2 mi West 16.1 mph - N/A   Partly Cloudy
2:50 PM 59.0 °F - 50.0 °F 72% 29.83 in 6.2 mi West 15.0 mph - N/A   Scattered Clouds
3:50 PM 59.0 °F - 48.2 °F 67% 29.83 in 6.2 mi West 15.0 mph - N/A   Partly Cloudy
4:50 PM 59.0 °F - 50.0 °F 72% 29.83 in 6.2 mi West 11.5 mph - N/A   Partly Cloudy
5:50 PM 57.2 °F - 48.2 °F 72% 29.83 in 6.2 mi West 9.2 mph - N/A   Partly Cloudy
6:50 PM 53.6 °F - 48.2 °F 82% 29.86 in 6.2 mi SW 5.8 mph - N/A   Partly Cloudy
7:50 PM 51.8 °F - 48.2 °F 88% 29.86 in - Variable 2.3 mph - N/A   Clear
8:50 PM 48.2 °F - 44.6 °F 87% 29.86 in - ENE 2.3 mph - N/A   Clear
9:50 PM 46.4 °F 43.5 °F 44.6 °F 93% 29.86 in - East 5.8 mph - N/A   Clear
10:50 PM 42.8 °F 39.3 °F 41.0 °F 93% 29.83 in - East 5.8 mph - N/A   Clear
11:50 PM 42.8 °F 38.0 °F 41.0 °F 93% 29.83 in - East 8.1 mph - N/A   Clear